Location: Gugi
(45.4667°N, 11.1000°E)
Time: 10:53:20
(UTC+00:00)

Meteor 1-20 Rocket - Pass Details

Date: 17 November 2019
Orbit: 820 x 891 km, 81.2° (Epoch: 09 December)

Event Time Altitude Azimuth Distance (km) Brightness Sun altitude
Rises 17:43:48 0° 353° (N) 3,514 7.4 -20.9°
Reaches altitude 10° 17:46:21 10° 358° (N) 2,569 6.7 -21.4°
Maximum altitude 17:52:05 53° 75° (ENE) 1,087 4.3 -22.4°
Enters shadow 17:53:33 42° 119° (ESE) 1,238 4.6 -22.6°
